Temp
-13 -13 -13 -12 -12 -12 -12 -11 -11 -11 -11 -12 -12 -12 -11 -11 -11 -11 -11 -11 -12 -13 -13 -13 -12 -12 -13 -12 -12 -12 -13 -13 -13 -12 -12 -12 -12 -12 -13 -14 -13 -13 -13
-14 -13 -13 -13 -13 -12 -12 -11 -11 -11 -11 -12 -12 -12 -11 -12 -11 -11 -11 -12 -12 -13 -13 -13 -12 -12 -13 -13 -13 -12 -13 -13 -13 -13 -13 -13 -12 -12 -12 -13 -14 -13 -13
-14 -14 -14 -14 -13 -12 -12 -12 -12 -11 -12 -11 -12 -12 -12 -12 -12 -12 -12 -12 -11 -12 -13 -13 -13 -12 -13 -13 -13 -13 -13 -13 -13 -13 -13 -13 -12 -12 -13 -13 -13 -14 -14
-14 -14 -14 -14 -13 -13 -13 -12 -12 -12 -12 -12 -12 -12 -12 -12 -12 -12 -12 -12 -12 -12 -13 -13 -13 -13 -13 -13 -14 -13 -13 -13 -13 -13 -13 -13 -13 -13 -13 -13 -13 -13 -14
-16 -16 -15 -15 -14 -14 -13 -13 -12 -12 -11 -11 -12 -12 -12 -12 -12 -12 -12 -12 -12 -12 -13 -13 -13 -13 -13 -13 -14 -14 -13 -13 -13 -13 -13 -12 -12 -13 -13 -13 -13 -13 -13
-17 -17 -16 -15 -14 -13 -13 -13 -13 -12 -11 -11 -12 -12 -12 -12 -12 -12 -12 -12 -12 -12 -13 -13 -13 -13 -13 -13 -13 -14 -14 -13 -13 -13 -14 -13 -13 -13 -13 -13 -13 -13 -13
-16 -17 -16 -15 -13 -12 -13 -13 -13 -13 -12 -12 -12 -12 -12 -12 -12 -12 -12 -12 -12 -12 -14 -14 -13 -14 -13 -13 -13 -14 -14 -13 -13 -13 -13 -14 -13 -13 -13 -13 -13 -13 -13
-17 -16 -15 -15 -13 -13 -13 -13 -12 -12 -12 -12 -12 -12 -12 -12 -12 -12 -12 -12 -12 -13 -14 -14 -14 -14 -14 -13 -13 -13 -13 -14 -13 -13 -13 -13 -13 -13 -13 -13 -13 -13 -13
-17 -17 -15 -15 -14 -14 -13 -13 -13 -13 -12 -13 -13 -12 -12 -12 -12 -12 -12 -13 -13 -13 -14 -15 -15 -14 -14 -13 -13 -13 -14 -13 -13 -13 -13 -13 -13 -13 -13 -13 -13 -13 -13
-17 -16 -16 -16 -15 -14 -14 -14 -13 -13 -13 -13 -13 -12 -12 -12 -12 -12 -13 -13 -13 -14 -14 -14 -15 -14 -14 -13 -13 -13 -13 -13 -13 -13 -13 -13 -13 -13 -13 -13 -13 -13 -13
-17 -17 -17 -16 -15 -15 -14 -14 -14 -14 -13 -13 -13 -13 -13 -13 -13 -13 -13 -13 -13 -14 -14 -15 -15 -14 -14 -13 -13 -13 -13 -13 -13 -13 -13 -13 -13 -13 -13 -13 -13 -13 -13
-17 -17 -16 -16 -15 -15 -14 -14 -14 -14 -14 -13 -13 -13 -13 -13 -13 -13 -13 -14 -13 -13 -14 -15 -15 -14 -14 -13 -13 -13 -13 -13 -13 -13 -13 -13 -13 -13 -13 -13 -13 -13 -13
-16 -18 -18 -17 -17 -15 -14 -14 -14 -14 -14 -14 -14 -13 -13 -13 -13 -13 -13 -14 -13 -13 -14 -15 -15 -14 -14 -13 -13 -14 -13 -14 -13 -13 -13 -13 -13 -13 -13 -13 -13 -14 -14
-17 -16 -17 -18 -17 -16 -16 -15 -15 -15 -14 -14 -14 -14 -13 -13 -13 -13 -13 -13 -14 -14 -15 -15 -15 -14 -14 -13 -13 -13 -13 -14 -13 -13 -13 -13 -13 -13 -13 -14 -14 -14 -14
-17 -17 -17 -17 -17 -17 -16 -16 -16 -15 -15 -14 -14 -14 -14 -14 -14 -14 -14 -14 -14 -15 -15 -15 -15 -15 -14 -14 -14 -14 -14 -14 -13 -13 -13 -13 -13 -13 -13 -14 -14 -14 -14
-17 -18 -19 -18 -17 -17 -16 -16 -16 -15 -15 -14 -14 -14 -14 -14 -14 -14 -14 -15 -14 -15 -15 -15 -15 -15 -14 -14 -14 -14 -14 -14 -13 -13 -13 -14 -13 -13 -14 -14 -14 -14 -14
-17 -18 -18 -18 -17 -17 -16 -16 -16 -15 -15 -15 -14 -14 -14 -14 -14 -14 -15 -15 -15 -15 -15 -15 -15 -16 -15 -14 -14 -14 -13 -14 -14 -14 -14 -14 -14 -14 -14 -14 -14 -14 -14
-18 -18 -18 -18 -18 -17 -17 -16 -16 -15 -15 -15 -14 -14 -14 -14 -14 -15 -15 -15 -14 -14 -15 -15 -15 -16 -15 -15 -14 -14 -13 -13 -14 -15 -15 -14 -14 -14 -14 -15 -15 -15 -14
-19 -19 -19 -19 -19 -19 -18 -17 -17 -16 -16 -15 -15 -14 -14 -14 -14 -15 -14 -14 -14 -14 -15 -15 -15 -16 -15 -15 -14 -14 -14 -14 -14 -14 -14 -14 -14 -14 -14 -15 -15 -15 -15
-20 -19 -20 -19 -19 -18 -18 -18 -17 -17 -16 -16 -15 -15 -14 -14 -14 -15 -15 -14 -14 -14 -14 -15 -15 -16 -15 -15 -15 -14 -14 -14 -14 -14 -14 -14 -15 -15 -15 -15 -15 -15 -15
-19 -19 -20 -19 -18 -18 -18 -18 -17 -17 -17 -16 -16 -16 -15 -15 -14 -15 -15 -15 -15 -15 -14 -15 -15 -15 -15 -16 -15 -15 -15 -15 -15 -15 -15 -15 -15 -15 -15 -15 -16 -16 -16
-20 -20 -20 -19 -19 -19 -18 -18 -17 -17 -17 -17 -17 -16 -16 -16 -15 -15 -14 -15 -14 -14 -14 -15 -15 -15 -16 -16 -16 -16 -16 -15 -15 -16 -16 -16 -16 -15 -16 -16 -16 -16 -16
-21 -21 -20 -20 -19 -19 -18 -18 -18 -18 -17 -17 -17 -17 -17 -16 -16 -15 -15 -15 -14 -15 -15 -15 -15 -15 -15 -16 -16 -16 -16 -16 -16 -16 -16 -16 -16 -16 -16 -16 -16 -16 -16
-21 -21 -21 -20 -20 -20 -19 -19 -19 -19 -18 -18 -18 -17 -17 -17 -17 -16 -15 -14 -15 -15 -15 -15 -15 -15 -15 -15 -16 -16 -16 -16 -16 -16 -16 -16 -16 -16 -16 -16 -16 -16 -16
-21 -20 -20 -20 -20 -20 -20 -20 -19 -19 -19 -18 -18 -18 -18 -17 -17 -16 -16 -16 -15 -15 -16 -15 -15 -15 -15 -15 -15 -16 -16 -16 -16 -16 -16 -16 -16 -16 -17 -17 -16 -17 -17
-22 -21 -21 -21 -21 -21 -21 -20 -20 -20 -19 -19 -19 -19 -19 -19 -18 -18 -17 -16 -15 -16 -16 -16 -16 -16 -15 -15 -15 -15 -15 -16 -16 -16 -16 -16 -16 -16 -17 -17 -17 -17 -17
Height
5702 5707 5716 5721 5726 5731 5737 5740 5744 5749 5755 5756 5758 5759 5760 5761 5764 5764 5764 5765 5765 5765 5765 5764 5764 5764 5764 5763 5762 5763 5764 5765 5765 5768 5768 5770 5773 5778 5780 5780 5784 5788 5791
5692 5698 5704 5708 5713 5719 5725 5731 5735 5740 5744 5747 5750 5751 5753 5755 5755 5757 5759 5759 5759 5760 5759 5759 5759 5759 5759 5758 5757 5757 5757 5759 5760 5762 5762 5764 5769 5771 5776 5776 5778 5782 5786
5679 5685 5692 5697 5702 5709 5717 5722 5726 5731 5735 5738 5740 5744 5745 5747 5749 5750 5751 5751 5752 5753 5753 5754 5753 5753 5753 5751 5751 5750 5751 5751 5753 5754 5755 5756 5762 5766 5768 5771 5772 5776 5778
5667 5675 5682 5687 5692 5699 5708 5710 5716 5722 5724 5728 5732 5735 5737 5739 5741 5741 5743 5744 5745 5746 5747 5747 5747 5746 5746 5746 5744 5744 5745 5744 5747 5746 5748 5750 5754 5757 5760 5763 5766 5768 5772
5658 5664 5671 5678 5683 5689 5693 5700 5706 5712 5714 5718 5723 5725 5727 5729 5732 5733 5734 5736 5737 5739 5740 5740 5740 5739 5739 5739 5738 5737 5737 5737 5739 5740 5740 5742 5746 5748 5753 5756 5760 5762 5765
5645 5655 5660 5665 5672 5677 5684 5689 5696 5702 5706 5709 5713 5716 5718 5721 5724 5726 5727 5729 5730 5731 5732 5732 5733 5733 5732 5731 5730 5729 5730 5730 5731 5732 5733 5734 5738 5742 5746 5748 5750 5756 5759
5634 5639 5646 5652 5661 5670 5674 5680 5686 5694 5696 5699 5704 5707 5709 5712 5715 5717 5719 5721 5722 5723 5725 5724 5725 5725 5724 5723 5723 5722 5722 5722 5723 5724 5725 5726 5730 5733 5738 5740 5743 5746 5749
5626 5633 5642 5648 5656 5662 5667 5671 5677 5683 5685 5689 5696 5699 5700 5702 5706 5708 5711 5713 5714 5715 5717 5716 5717 5717 5717 5715 5714 5714 5715 5715 5715 5716 5719 5720 5721 5725 5729 5733 5736 5739 5742
5620 5626 5633 5639 5646 5652 5656 5659 5664 5670 5676 5680 5685 5687 5690 5692 5695 5699 5702 5705 5706 5707 5709 5709 5710 5709 5708 5708 5707 5706 5706 5706 5707 5709 5709 5712 5713 5717 5721 5725 5729 5733 5736
5617 5621 5626 5630 5635 5642 5647 5651 5655 5660 5664 5669 5674 5678 5680 5682 5686 5689 5694 5696 5698 5699 5700 5701 5703 5702 5700 5699 5698 5698 5697 5697 5699 5700 5702 5703 5705 5709 5712 5717 5722 5725 5728
5610 5614 5616 5624 5629 5633 5638 5643 5647 5650 5655 5659 5663 5668 5671 5674 5678 5681 5684 5686 5690 5690 5691 5693 5694 5693 5692 5692 5690 5689 5689 5688 5688 5689 5691 5694 5697 5700 5703 5708 5714 5718 5720
5602 5603 5606 5614 5621 5626 5630 5633 5638 5642 5646 5649 5654 5658 5662 5665 5669 5672 5675 5677 5679 5680 5684 5685 5685 5684 5683 5683 5682 5680 5680 5679 5679 5678 5680 5685 5687 5691 5696 5699 5706 5709 5712
5594 5596 5601 5606 5612 5617 5621 5625 5629 5633 5638 5641 5644 5648 5652 5656 5659 5662 5665 5668 5670 5671 5676 5677 5677 5676 5675 5674 5673 5672 5670 5668 5664 5666 5670 5673 5676 5682 5685 5692 5698 5702 5704
5587 5584 5590 5598 5603 5607 5611 5616 5620 5624 5629 5633 5636 5639 5643 5646 5649 5652 5655 5658 5660 5664 5667 5668 5669 5668 5667 5666 5665 5664 5661 5659 5655 5656 5660 5664 5669 5673 5679 5686 5691 5695 5698
5580 5582 5587 5593 5597 5600 5605 5610 5613 5616 5620 5624 5628 5630 5634 5637 5640 5643 5645 5649 5652 5655 5657 5659 5660 5660 5659 5659 5659 5657 5655 5650 5648 5649 5652 5656 5661 5667 5673 5678 5684 5687 5691
5578 5581 5583 5587 5592 5596 5600 5604 5607 5610 5613 5617 5620 5622 5625 5627 5630 5632 5636 5640 5643 5646 5648 5651 5652 5652 5652 5652 5653 5652 5650 5647 5642 5642 5647 5651 5656 5660 5666 5672 5675 5679 5681
5565 5573 5579 5582 5587 5591 5594 5597 5600 5603 5607 5609 5612 5614 5616 5618 5621 5624 5628 5631 5635 5637 5639 5642 5644 5644 5645 5646 5647 5647 5646 5646 5642 5642 5644 5648 5652 5656 5661 5665 5669 5671 5674
5559 5563 5569 5575 5582 5585 5588 5590 5593 5596 5599 5602 5604 5606 5608 5609 5613 5616 5619 5622 5625 5627 5630 5633 5635 5637 5638 5639 5641 5641 5642 5641 5642 5642 5643 5645 5648 5652 5655 5659 5663 5665 5666
5565 5567 5566 5570 5577 5581 5581 5583 5587 5588 5592 5594 5596 5598 5600 5602 5605 5608 5610 5613 5616 5618 5621 5624 5626 5628 5630 5633 5635 5635 5636 5637 5638 5640 5641 5643 5646 5649 5651 5654 5657 5659 5661
5561 5563 5565 5570 5574 5577 5578 5576 5578 5581 5584 5586 5587 5589 5591 5594 5596 5599 5601 5604 5607 5610 5612 5614 5616 5618 5622 5625 5627 5629 5630 5630 5632 5633 5635 5637 5640 5643 5646 5648 5649 5650 5651
5558 5558 5561 5564 5569 5570 5572 5573 5573 5575 5576 5578 5578 5581 5583 5585 5588 5590 5593 5596 5599 5602 5604 5605 5607 5607 5613 5616 5619 5621 5623 5624 5625 5627 5629 5631 5633 5634 5636 5637 5638 5639 5640
5552 5554 5556 5558 5561 5563 5565 5566 5566 5568 5570 5571 5571 5572 5574 5576 5578 5580 5582 5585 5587 5590 5593 5595 5597 5597 5603 5606 5609 5611 5614 5616 5618 5619 5622 5623 5624 5626 5626 5627 5628 5629 5629
5546 5549 5550 5552 5555 5557 5557 5559 5561 5562 5563 5564 5565 5565 5565 5567 5569 5571 5573 5574 5577 5578 5582 5585 5586 5590 5593 5596 5598 5602 5604 5606 5609 5611 5613 5613 5614 5615 5616 5617 5618 5618 5619
5541 5542 5544 5546 5548 5550 5551 5553 5555 5555 5556 5557 5557 5558 5559 5560 5560 5561 5562 5565 5566 5568 5571 5573 5578 5578 5583 5587 5589 5591 5595 5597 5600 5602 5603 5604 5605 5606 5607 5608 5608 5609 5609
5536 5538 5541 5542 5544 5546 5547 5548 5549 5549 5550 5551 5551 5550 5551 5552 5552 5552 5554 5556 5559 5561 5563 5565 5568 5569 5574 5578 5580 5583 5585 5588 5589 5589 5591 5592 5594 5594 5593 5595 5596 5595 5595
5534 5535 5537 5539 5540 5541 5543 5543 5543 5542 5543 5544 5545 5544 5544 5545 5546 5546 5547 5547 5550 5553 5556 5558 5560 5560 5564 5567 5569 5573 5575 5576 5576 5578 5578 5579 5582 5581 5581 5581 5580 5580 5579
Wind_Speed
55 57 52 50 49 44 44 42 39 32 29 29 27 27 30 29 26 22 23 23 23 23 26 21 19 15 16 18 21 23 23 24 25 24 31 35 27 27 24 26 25 24 24
52 49 42 44 44 42 40 36 34 30 27 30 28 28 30 29 29 25 21 23 24 22 25 23 21 18 17 17 20 24 26 26 26 27 27 33 33 29 30 28 30 28 26
51 52 46 46 47 43 37 37 34 30 31 33 32 28 30 29 30 23 24 24 23 21 23 24 22 21 20 19 20 23 25 27 28 23 25 31 36 34 35 36 33 31 29
53 51 49 47 49 44 39 40 38 32 34 33 31 29 31 31 30 27 29 25 24 22 21 23 24 23 24 22 21 23 27 29 30 28 30 31 31 30 32 36 35 34 31
39 40 42 43 44 42 42 39 36 34 37 35 32 32 34 34 32 31 31 26 25 24 21 22 24 23 26 27 24 24 26 29 29 26 25 29 32 37 32 36 36 38 34
40 35 40 42 45 49 44 41 36 37 36 36 32 33 36 35 33 33 32 28 27 27 22 23 23 24 27 29 27 26 26 30 32 28 29 31 38 36 36 31 37 35 36
37 41 43 48 53 48 46 42 39 31 36 39 37 35 37 36 35 36 34 30 29 29 23 24 24 25 28 29 28 27 28 30 32 32 28 28 38 40 36 32 35 37 39
28 31 37 42 45 45 42 39 38 37 42 41 37 37 39 39 37 37 35 30 30 32 26 24 23 27 29 29 29 28 29 30 32 31 32 34 32 44 38 32 37 41 40
28 26 23 29 31 33 38 43 42 41 42 40 38 39 40 41 40 38 34 31 31 33 28 26 25 28 30 29 29 29 30 30 29 31 32 33 34 42 42 37 34 34 40
20 18 23 29 35 36 37 39 40 40 40 37 36 38 40 41 40 37 33 33 32 33 31 27 26 29 30 29 30 29 32 31 32 32 32 29 34 42 46 43 37 32 30
35 37 33 31 27 32 36 37 37 39 39 38 37 36 37 39 39 36 34 34 34 35 32 28 27 29 30 28 30 31 32 34 33 34 36 40 38 39 50 48 42 35 34
27 18 28 24 29 31 32 33 35 36 36 36 37 37 37 38 39 36 35 37 37 37 31 29 28 29 30 27 29 32 32 33 38 39 36 37 42 41 47 49 40 40 38
25 31 34 38 36 35 33 33 33 32 33 35 35 35 37 39 40 39 38 37 38 40 30 29 29 30 29 25 29 29 28 33 32 35 35 39 42 47 52 47 46 45 41
25 39 35 37 36 34 33 33 34 33 32 31 33 36 38 39 39 39 39 39 40 36 31 30 29 31 28 24 27 23 22 32 24 27 31 35 41 45 41 48 43 44 42
32 32 33 31 30 30 29 29 27 28 28 29 32 35 39 40 38 39 40 39 35 35 33 30 31 32 27 23 24 19 21 26 22 28 31 31 37 39 44 43 44 41 38
35 28 18 18 22 25 25 25 24 25 25 25 29 35 37 38 38 39 38 33 34 35 33 31 31 29 25 23 21 18 18 19 15 23 19 19 30 37 39 35 38 42 34
39 39 26 22 25 26 28 27 26 25 26 25 26 30 32 34 37 36 34 31 33 32 32 32 32 30 25 24 21 17 14 17 7 16 18 16 15 23 30 35 32 33 36
23 30 31 31 30 30 31 29 28 28 28 27 26 27 28 31 33 32 31 32 34 35 33 33 35 30 25 26 22 19 15 15 14 9 9 11 14 16 17 19 22 26 30
6 5 6 24 27 25 25 26 28 27 28 29 28 28 29 30 30 30 30 30 34 35 36 33 40 31 26 27 25 22 21 18 18 19 19 19 21 24 23 24 27 29 32
29 33 27 11 12 17 20 20 21 24 28 29 27 29 30 30 29 29 31 31 35 36 33 30 45 34 30 30 30 27 26 25 24 24 25 25 25 26 27 31 28 32 34
33 32 28 15 18 18 19 20 21 23 25 28 29 29 30 30 32 35 37 37 40 39 36 36 50 40 34 34 32 31 31 29 28 28 28 28 29 30 31 32 35 33 36
23 21 19 20 22 21 20 21 21 23 24 24 25 28 29 29 32 36 42 43 37 43 41 39 52 41 38 40 38 35 34 33 32 30 29 30 34 36 36 37 37 35 35
20 21 22 24 24 24 22 22 22 25 26 28 28 27 28 30 29 31 31 45 40 35 43 47 52 43 36 38 42 44 42 41 37 31 30 31 31 31 32 30 28 30 33
17 21 18 21 22 20 17 19 19 22 26 30 30 29 29 28 29 24 24 24 28 31 28 44 53 41 33 36 33 35 32 32 39 34 32 34 37 35 31 31 30 34 35
20 19 22 25 24 24 17 18 18 18 20 23 26 27 28 29 29 29 28 29 28 37 37 45 49 37 35 38 33 36 33 33 35 35 38 35 38 35 39 36 37 39 42
12 16 19 20 21 16 15 16 15 18 19 21 22 21 23 21 26 29 31 34 41 36 33 42 48 49 48 44 45 43 43 45 38 35 39 40 44 46 42 42 41 49 49
Wind_Direction
242 243 241 244 246 247 248 252 252 249 235 243 249 254 260 260 266 268 273 280 283 292 291 294 294 300 292 280 272 268 264 265 260 275 239 235 238 234 237 230 233 234 245
242 247 244 242 240 247 247 246 246 240 237 245 245 248 253 255 261 260 273 271 277 287 286 290 292 295 295 285 280 268 258 262 259 270 253 251 244 248 247 238 235 236 240
229 235 236 240 242 240 243 244 242 243 245 243 246 246 250 251 258 261 262 262 270 278 280 284 289 293 295 286 286 276 262 257 255 267 252 255 249 253 248 253 237 237 241
227 227 235 234 242 247 241 245 246 244 248 245 245 244 246 249 250 250 257 260 265 270 278 282 286 291 294 288 282 283 263 258 262 270 264 261 249 241 245 240 242 233 234
231 233 230 234 243 245 244 243 245 245 246 248 245 245 245 244 246 248 253 257 263 267 272 279 285 290 293 292 273 279 275 262 257 270 268 260 248 243 247 245 244 233 230
223 226 233 235 234 234 239 244 243 242 247 250 248 247 248 247 247 250 251 255 259 267 270 274 279 289 294 293 277 272 278 271 260 267 271 264 249 245 249 251 240 237 237
222 216 221 229 232 238 239 240 242 243 245 247 246 246 249 248 245 250 250 252 256 267 264 270 279 290 292 289 280 269 275 275 264 263 280 279 249 246 245 247 238 231 235
235 231 233 238 239 240 245 249 249 243 245 249 249 248 249 252 249 248 251 254 261 266 265 271 276 290 288 284 279 275 276 278 266 261 268 266 264 240 240 246 239 240 240
231 234 237 231 229 233 235 239 242 244 244 245 243 242 244 247 248 248 251 255 260 265 265 269 275 287 285 279 277 275 281 279 259 263 267 261 258 240 241 242 245 244 244
207 205 222 225 223 232 233 236 240 242 243 243 242 241 243 245 245 246 248 252 257 262 264 268 273 280 279 274 278 275 275 276 262 267 249 259 248 240 243 243 246 246 252
234 239 251 217 228 233 236 235 238 242 244 245 246 244 242 243 244 245 247 252 254 258 263 267 274 278 277 271 280 277 272 272 263 266 263 251 239 235 236 243 244 248 253
235 266 241 229 231 233 235 238 237 239 244 247 246 245 243 242 246 250 247 251 255 259 264 267 271 273 271 270 280 277 276 268 268 262 244 248 243 228 235 236 241 251 255
233 231 238 226 231 234 235 236 239 241 240 243 246 245 244 244 246 247 248 250 255 260 265 265 268 271 266 274 281 276 280 286 266 255 246 247 230 235 233 234 242 248 258
253 218 216 222 230 232 236 238 242 244 244 243 243 243 244 243 242 244 246 247 252 262 260 262 266 267 264 276 282 284 278 291 250 238 232 235 228 228 230 235 237 244 251
233 245 212 217 234 239 243 248 249 249 248 244 240 240 241 242 240 242 244 247 253 258 255 260 267 261 260 274 276 275 281 291 246 228 229 226 221 225 228 234 237 239 247
239 232 191 219 233 240 240 244 245 246 245 244 240 238 240 240 240 240 243 246 249 251 254 260 271 253 256 270 268 271 276 290 241 215 206 211 224 223 224 226 237 244 252
209 222 223 226 232 236 242 244 245 246 248 244 242 242 242 241 242 241 241 241 244 252 257 263 268 248 252 264 262 262 250 271 246 200 211 204 204 220 226 235 239 251 257
176 206 228 240 228 234 238 238 241 243 247 249 246 246 243 243 241 241 239 243 243 248 253 259 263 239 245 255 259 247 245 241 239 218 224 199 204 200 207 222 236 248 249
297 19 260 230 236 235 231 236 239 242 246 246 246 249 251 246 241 239 238 243 249 249 250 250 259 233 241 248 250 246 239 231 226 224 234 233 227 217 225 230 232 237 240
273 265 294 299 241 240 255 243 245 247 249 252 249 250 250 248 247 247 243 249 249 247 248 252 254 229 235 242 244 245 240 235 234 229 227 229 231 237 238 239 238 248 250
276 273 283 265 260 255 255 258 253 252 255 255 254 252 252 252 247 244 247 255 257 259 248 249 254 231 230 237 243 242 244 242 237 238 240 241 242 242 242 242 243 244 251
260 255 248 247 253 254 254 252 251 251 257 260 260 258 257 254 253 254 249 252 268 252 252 251 257 235 227 237 238 235 240 242 243 243 245 248 246 244 246 246 247 248 252
240 240 242 245 246 251 258 258 256 249 249 255 257 260 264 265 264 266 274 258 264 261 250 256 256 247 241 245 237 239 241 244 243 247 253 254 250 246 253 255 259 267 263
263 266 269 263 257 269 264 263 256 254 256 257 256 254 257 261 265 269 266 253 264 264 267 249 248 235 239 237 234 234 237 245 241 249 257 256 251 250 247 252 261 266 264
263 264 268 276 264 263 257 262 266 269 265 260 263 267 266 262 259 259 249 247 245 237 248 242 237 234 237 249 244 232 234 248 248 259 249 260 249 242 249 243 250 257 260
262 266 265 263 251 240 262 267 281 278 275 271 264 269 264 269 251 253 257 253 236 244 249 243 241 225 246 232 239 237 242 253 241 255 240 245 247 250 252 247 258 253 257